Find Starlink 30162

NORAD ID: 57446 Int'l Des: 2023-105 Owner: SPXS Country: US Constellation: starlink operational
LEOCIRCULAR

現在のビュー

3D地球を読み込み中...

Starlink 30162について

説明を読み込み中...

次回通過

Passes for default location (London). Set your location on the main map for personalized predictions.

高度履歴

Loading altitude history...

軌道要素

1 57446U 23105S 26144.15630426 -.00000347 00000-0 -30948-5 0 9996
2 57446 43.0035 182.6002 0001261 289.8602 70.2114 15.27587478157256
Epoch: May 24, 2026 • Age: 25 hours

現在のステータス

高度 488.1 km
速度 7.62 km/s
衛星直下点 -24.21°S, 165.2°W
打ち上げ日 Jul 24, 2023
運用期間 2.8 years
タイプ internet

技術仕様

分類 Payload
質量 730.00 kg
乾燥質量 700.00 kg
総質量 730.00 kg
長さ 0.30 m
直径 4.10 m
スパン 29.00 m
形状 Box + pan
製造者 SPXS
バスタイプ Starlink V2M
フェーズステータス In Orbit
所有者/国 SPXS/US

Most Searched